1998-067TX

Last updated on Thu Jul 28 2022 00:02:05 GMT+0000 (Coordinated Universal Time)

1 53312U 98067TX 22206.80490273 .00031450 00000+0 54552-3 0 9995 2 53312 51.6422 145.2976 0005384 57.6491 302.4872 15.50571530 651
UTC large
Height (km)
Speed (km/s)
/
Latitude / Longitude
Inclination (degrees)
Orbital Period (minutes)
Azimuth
Elevation
Range (km)
Doppler Factor

Next 0 passes for location: London (51.5072 / 0.1276)

Sorry there are no passes over London.